Regional Weather Roundup
Issued by NWS Memphis, TN

Home | Current Version | Previous Version | Text Only | Print | Product List | Glossary On
Versions: 1 2 3 4 5 6 7 8 9 10 11 12 13 14 15 16 17 18 19 20 21 22 23 24 25 26 27 28 29 30 31 32 33 34 35 36 37 38 39 40 41 42 43 44 45 46 47 48 49 50
000
ASUS44 KMEG 292110
RWRMEG
MEMPHIS CWA HOURLY WEATHER ROUNDUP
NATIONAL WEATHER SERVICE MEMPHIS TN
400 PM CDT SUN MAY 29 2016

...WEST TENNESSEE...

CITY           SKY/WX    TMP DP  RH WIND       PRES   REMARKS
MEMPHIS INTL   PTSUNNY   89  69  51 W7        30.07F HX  93
NWS MEMPHIS      N/A     88 N/A N/A MISG        N/A
JACKSON        SUNNY     86  66  51 W7        30.06F
LEXINGTON      MOSUNNY   88  64  45 W7        30.06F
DYERSBURG      PTSUNNY   88  68  51 W3        30.06F HX  91
UNION CITY     MOSUNNY   88  66  48 W8        30.05F HX  90
PARIS          MOSUNNY   84  66  54 W9        30.07F


...EASTERN ARKANSAS...

CITY           SKY/WX    TMP DP  RH WIND       PRES   REMARKS
JONESBORO      SUNNY     86  65  49 NW8       30.07F
WEST MEMPHIS   SUNNY     85  67  54 W5        30.06F
BATESVILLE     PTSUNNY   84  66  54 W6        30.09F
NEWPORT        MOSUNNY   86  68  54 N6        30.09F
WALNUT RIDGE   MOSUNNY   88  63  42 N8        30.07F
BLYTHEVILLE    MOSUNNY   87  68  52 W7        30.07F HX  90
SEARCY         CLOUDY    84  71  65 E3        30.09F
STUTTGART      MOSUNNY   84  64  51 N6        30.08S
PINE BLUFF     MOSUNNY   87  70  56 CALM      30.05F HX  92
MONTICELLO     SUNNY     91  70  49 SE7       30.05F HX  96


...NORTH MISSISSIPPI...

CITY           SKY/WX    TMP DP  RH WIND       PRES   REMARKS
TUPELO         MOSUNNY   91  65  41 VRB3      30.07F HX  93
OXFORD           N/A     88  64  45 NW6       30.08F
BATESVILLE     SUNNY     87  67  50 W8        30.07F
OLIVE BRANCH   PTSUNNY   86  72  62 VRB7      30.07F HX  92
TUNICA         MOSUNNY   82  68  61 W7        30.07F
CLARKSDALE     MOSUNNY   90  73  58 W5        30.06F HX  98
CORINTH        MOSUNNY   88  64  45 S5        30.06F
GREENWOOD      SUNNY     89  65  44 W5        30.06F HX  91
COLUMBUS       MOSUNNY   90  68  48 N5        30.05F HX  94
STARKVILLE     SUNNY     90  63  40 NW5       30.06F HX  90
GOLDEN TRIANGL PTSUNNY   93  64  38 NW5       30.06F HX  95


...SOUTHEAST MISSOURI...

CITY           SKY/WX    TMP DP  RH WIND       PRES   REMARKS
KENNETT        SUNNY     88  64  45 NW9       30.06F
WEST PLAINS    CLOUDY    82  61  48 CALM      30.13F
POPLAR BLUFF   PTSUNNY   86  63  45 NW9G17    30.07F
CAPE GIRARDEAU MOSUNNY   84  60  44 N5        30.06F


...NORTHWEST ALABAMA...

CITY           SKY/WX    TMP DP  RH WIND       PRES   REMARKS
MUSCLE SHOALS  MOSUNNY   90  61  37 VRB3      30.07F HX  90


...MIDDLE TENNESSEE...

CITY           SKY/WX    TMP DP  RH WIND       PRES   REMARKS
NASHVILLE      MOSUNNY   89  63  41 W7        30.05F HX  90
CLARKSVILLE    MOSUNNY   85  68  56 SW9       30.05F
COLUMBIA       SUNNY     90  66  45 VRB6      30.05F HX  92


...WESTERN KENTUCKY...

CITY           SKY/WX    TMP DP  RH WIND       PRES   REMARKS
PADUCAH        MOSUNNY   87  64  46 W7        30.05F
FORT CAMPBELL  SUNNY     85  68  56 W8        30.05F


...CENTRAL ARKANSAS...

CITY           SKY/WX    TMP DP  RH WIND       PRES   REMARKS
LITTLE ROCK    TSTM      71  63  75 SW21G40   30.11R SQUALL


SKY/WX REPORTED AS FAIR MEANS FEW OR NO CLOUDS BELOW
12 THOUSAND FEET.




USA.gov is the U.S. government's official web portal to all federal, state and local government web resources and services.